When you browse on this site, cookies collect data to enhance your experience and personalize the content and advertising you see.
Visit our Privacy Policy to learn more. By continuing to use the site, you agree to this use of cookies and data.
  • în România
  • Lista ţărilor
  • Pe 7 zile
  • Temperatura apei
  • Hartă satelitară
  • Meteo pe hartă
  • Widget-uri
  • user-avatar
    Intrare

    Meteo pe oră la Saint-Pierre-des-Corps

    Astăzi, 20 Iunie, Joi

    Timp Temperatura Precipitaţii Vânt Presiune Umiditate
    00:00 +16°C° 0 mm 3 m/s 755 mmHg 96%
    01:00 +16°C° 0 mm 3 m/s 755 mmHg 96%
    02:00 +16°C° 0 mm 3 m/s 755 mmHg 96%
    03:00 +16°C° 0 mm 3 m/s 755 mmHg 96%
    04:00 +14°C° 0 mm 3 m/s 755 mmHg 95%
    05:00 +14°C° 0 mm 3 m/s 756 mmHg 93%
    06:00 +16°C° 0 mm 3 m/s 756 mmHg 91%
    07:00 +16°C° 0 mm 3 m/s 757 mmHg 87%
    08:00 +17°C° 0 mm 3 m/s 757 mmHg 82%
    09:00 +18°C° 0 mm 2 m/s 757 mmHg 77%
    10:00 +19°C° 0 mm 3 m/s 757 mmHg 72%
    11:00 +20°C° 0 mm 3 m/s 757 mmHg 67%
    12:00 +21°C° 0 mm 3 m/s 757 mmHg 62%
    13:00 +21°C° 0 mm 3 m/s 757 mmHg 61%
    14:00 +21°C° 0 mm 3 m/s 757 mmHg 59%
    15:00 +21°C° 0 mm 3 m/s 757 mmHg 58%
    16:00 +21°C° 0 mm 3 m/s 757 mmHg 61%
    17:00 +20°C° 0 mm 3 m/s 757 mmHg 65%
    18:00 +20°C° 0 mm 2 m/s 757 mmHg 69%
    19:00 +18°C° 0 mm 2 m/s 757 mmHg 71%
    20:00 +17°C° 0 mm 2 m/s 758 mmHg 74%
    21:00 +15°C° 0 mm 2 m/s 758 mmHg 76%
    22:00 +14°C° 0 mm 2 m/s 758 mmHg 80%
    23:00 +14°C° 0 mm 2 m/s 759 mmHg 84%

    Mâine, 21 Iunie, Vineri

    Timp Temperatura Precipitaţii Vânt Presiune Umiditate
    00:00 +13°C° 0 mm 2 m/s 759 mmHg 88%
    01:00 +13°C° 0 mm 2 m/s 759 mmHg 89%
    02:00 +12°C° 0 mm 2 m/s 759 mmHg 90%
    03:00 +12°C° 0 mm 2 m/s 759 mmHg 92%
    04:00 +12°C° 0 mm 2 m/s 759 mmHg 89%
    05:00 +12°C° 0 mm 3 m/s 759 mmHg 87%
    06:00 +13°C° 0 mm 3 m/s 759 mmHg 84%
    07:00 +16°C° 0 mm 3 m/s 760 mmHg 79%
    08:00 +17°C° 0 mm 4 m/s 760 mmHg 74%
    09:00 +19°C° 0 mm 4 m/s 760 mmHg 70%
    10:00 +20°C° 0.1 mm 4 m/s 760 mmHg 66%
    11:00 +21°C° 0.1 mm 3 m/s 760 mmHg 63%
    12:00 +22°C° 0.1 mm 3 m/s 759 mmHg 59%
    13:00 +21°C° 0.1 mm 3 m/s 759 mmHg 61%
    14:00 +21°C° 0.1 mm 3 m/s 759 mmHg 62%
    15:00 +21°C° 0.1 mm 3 m/s 759 mmHg 63%
    16:00 +21°C° 0.1 mm 3 m/s 759 mmHg 67%
    17:00 +20°C° 0.1 mm 3 m/s 759 mmHg 70%
    18:00 +20°C° 0.1 mm 3 m/s 759 mmHg 74%
    19:00 +19°C° 0 mm 3 m/s 759 mmHg 76%
    20:00 +17°C° 0 mm 3 m/s 760 mmHg 78%
    21:00 +16°C° 0 mm 3 m/s 760 mmHg 81%
    22:00 +16°C° 0 mm 3 m/s 760 mmHg 82%
    23:00 +14°C° 0 mm 3 m/s 760 mmHg 83%

    Poimâine, 22 Iunie, Sâmbătă

    Timp Temperatura Precipitaţii Vânt Presiune Umiditate
    00:00 +14°C° 0 mm 3 m/s 760 mmHg 85%
    01:00 +13°C° 0 mm 3 m/s 760 mmHg 87%
    02:00 +12°C° 0 mm 3 m/s 760 mmHg 89%
    03:00 +13°C° 0 mm 2 m/s 760 mmHg 90%
    04:00 +13°C° 0 mm 2 m/s 760 mmHg 87%
    05:00 +13°C° 0 mm 3 m/s 760 mmHg 84%
    06:00 +13°C° 0 mm 3 m/s 760 mmHg 80%
    07:00 +16°C° 0 mm 3 m/s 759 mmHg 74%
    08:00 +18°C° 0 mm 3 m/s 759 mmHg 68%
    09:00 +19°C° 0 mm 3 m/s 759 mmHg 62%
    10:00 +20°C° 0 mm 3 m/s 759 mmHg 60%
    11:00 +22°C° 0 mm 3 m/s 759 mmHg 57%
    12:00 +24°C° 0 mm 3 m/s 758 mmHg 55%
    13:00 +24°C° 0 mm 3 m/s 758 mmHg 56%
    14:00 +25°C° 0 mm 3 m/s 757 mmHg 57%
    15:00 +25°C° 0 mm 3 m/s 757 mmHg 57%
    16:00 +25°C° 0 mm 2 m/s 757 mmHg 62%
    17:00 +25°C° 0 mm 2 m/s 757 mmHg 66%
    18:00 +24°C° 0 mm 2 m/s 757 mmHg 70%
    19:00 +23°C° 0 mm 2 m/s 757 mmHg 76%
    20:00 +20°C° 0 mm 2 m/s 757 mmHg 82%
    21:00 +18°C° 0 mm 2 m/s 757 mmHg 88%
    22:00 +18°C° 0 mm 2 m/s 757 mmHg 90%
    23:00 +17°C° 0 mm 2 m/s 757 mmHg 91%

    23 Iunie, Duminică

    Timp Temperatura Precipitaţii Vânt Presiune Umiditate
    00:00 +17°C° 0 mm 2 m/s 757 mmHg 93%
    01:00 +17°C° 0 mm 2 m/s 757 mmHg 94%
    02:00 +16°C° 0 mm 2 m/s 756 mmHg 94%
    03:00 +16°C° 0 mm 2 m/s 756 mmHg 95%
    04:00 +17°C° 0 mm 2 m/s 756 mmHg 94%
    05:00 +17°C° 0 mm 3 m/s 756 mmHg 92%
    06:00 +18°C° 0 mm 3 m/s 756 mmHg 90%
    07:00 +19°C° 0 mm 3 m/s 756 mmHg 84%
    08:00 +21°C° 0 mm 3 m/s 756 mmHg 78%
    09:00 +24°C° 0 mm 3 m/s 756 mmHg 71%
    10:00 +25°C° 0 mm 3 m/s 755 mmHg 68%
    11:00 +26°C° 0 mm 3 m/s 755 mmHg 64%
    12:00 +27°C° 0 mm 4 m/s 755 mmHg 60%
    13:00 +28°C° 0 mm 4 m/s 755 mmHg 60%
    14:00 +28°C° 0 mm 4 m/s 754 mmHg 60%
    15:00 +29°C° 0 mm 4 m/s 754 mmHg 60%
    16:00 +28°C° 0 mm 4 m/s 754 mmHg 64%
    17:00 +28°C° 0 mm 3 m/s 754 mmHg 68%
    18:00 +28°C° 0 mm 3 m/s 754 mmHg 72%
    19:00 +26°C° 0 mm 3 m/s 754 mmHg 75%
    20:00 +24°C° 0 mm 3 m/s 754 mmHg 79%
    21:00 +22°C° 0 mm 3 m/s 755 mmHg 82%
    22:00 +21°C° 0 mm 3 m/s 755 mmHg 84%
    23:00 +21°C° 0 mm 3 m/s 755 mmHg 86%

    24 Iunie, Luni

    Timp Temperatura Precipitaţii Vânt Presiune Umiditate
    00:00 +20°C° 0 mm 2 m/s 755 mmHg 89%
    01:00 +20°C° 0 mm 2 m/s 755 mmHg 89%
    02:00 +20°C° 0 mm 1 m/s 755 mmHg 89%
    03:00 +20°C° 0 mm 1 m/s 755 mmHg 89%
    04:00 +21°C° 0 mm 1 m/s 756 mmHg 88%
    05:00 +20°C° 0 mm 2 m/s 756 mmHg 87%
    06:00 +21°C° 0 mm 2 m/s 756 mmHg 86%
    07:00 +24°C° 0 mm 2 m/s 756 mmHg 81%
    08:00 +25°C° 0 mm 2 m/s 757 mmHg 75%
    09:00 +27°C° 0 mm 3 m/s 757 mmHg 70%
    10:00 +28°C° 0 mm 2 m/s 757 mmHg 66%
    11:00 +29°C° 0 mm 2 m/s 757 mmHg 61%
    12:00 +30°C° 0 mm 2 m/s 757 mmHg 57%
    13:00 +31°C° 0 mm 2 m/s 756 mmHg 54%
    14:00 +31°C° 0 mm 1 m/s 756 mmHg 51%
    15:00 +32°C° 0 mm 1 m/s 756 mmHg 48%
    16:00 +32°C° 0 mm 1 m/s 756 mmHg 53%
    17:00 +31°C° 0 mm 1 m/s 756 mmHg 58%
    18:00 +31°C° 0 mm 1 m/s 756 mmHg 62%
    19:00 +29°C° 0 mm 1 m/s 756 mmHg 66%
    20:00 +27°C° 0 mm 2 m/s 756 mmHg 70%
    21:00 +26°C° 0 mm 2 m/s 756 mmHg 74%
    22:00 +25°C° 0 mm 2 m/s 756 mmHg 78%
    23:00 +25°C° 0 mm 2 m/s 756 mmHg 81%

    25 Iunie, Marţi

    Timp Temperatura Precipitaţii Vânt Presiune Umiditate
    00:00 +24°C° 0 mm 2 m/s 755 mmHg 85%
    01:00 +24°C° 0 mm 2 m/s 755 mmHg 87%
    02:00 +23°C° 0 mm 2 m/s 755 mmHg 90%
    03:00 +21°C° 0 mm 2 m/s 754 mmHg 92%
    04:00 +23°C° 0 mm 2 m/s 755 mmHg 90%
    05:00 +24°C° 0 mm 2 m/s 755 mmHg 89%
    06:00 +25°C° 0 mm 3 m/s 755 mmHg 87%
    07:00 +26°C° 0 mm 3 m/s 755 mmHg 76%
    08:00 +27°C° 0 mm 4 m/s 756 mmHg 64%
    09:00 +29°C° 0 mm 4 m/s 756 mmHg 53%
    10:00 +29°C° 0 mm 4 m/s 756 mmHg 54%
    11:00 +29°C° 0 mm 4 m/s 756 mmHg 55%
    12:00 +30°C° 0 mm 4 m/s 757 mmHg 56%
    13:00 +30°C° 0 mm 4 m/s 757 mmHg 56%
    14:00 +31°C° 0 mm 3 m/s 757 mmHg 56%
    15:00 +33°C° 0 mm 3 m/s 757 mmHg 56%
    16:00 +31°C° 0 mm 2 m/s 757 mmHg 60%
    17:00 +31°C° 0 mm 2 m/s 758 mmHg 64%
    18:00 +31°C° 0 mm 1 m/s 758 mmHg 68%
    19:00 +29°C° 0 mm 1 m/s 758 mmHg 72%
    20:00 +27°C° 0 mm 1 m/s 759 mmHg 77%
    21:00 +25°C° 0 mm 1 m/s 759 mmHg 82%
    22:00 +25°C° 0 mm 2 m/s 759 mmHg 84%
    23:00 +24°C° 0 mm 2 m/s 759 mmHg 87%
    Arată mai mult